Springfield, IL

4:19 AM CDT on July 25, 2017 (GMT -0500)
Capital

Weather History for KSPI - April, 2014

Change the Weather History Date:

Friday, April 11, 2014

  Actual Average Record
Temperature  
Mean Temperature 55 °F 52 °F  
Max Temperature 73 °F 63 °F 90 °F (1930)
Min Temperature 37 °F 41 °F 24 °F (1973)
Degree Days  
Heating Degree Days 10 14  
Month to date heating degree days 146 169  
Since 1 July heating degree days 5948 5151  
Cooling Degree Days 0 0  
Month to date cooling degree days 0 0  
Year to date cooling degree days 0 2  
Growing Degree Days 5 (Base 50)    
Moisture  
Dew Point 29 °F    
Average Humidity 46    
Maximum Humidity 76    
Minimum Humidity 16    
Precipitation  
Precipitation 0.00 in 0.11 in 4.45 in (1979)
Month to date precipitation 2.11 1.16  
Year to date precipitation 9.33 7.42  
Snow  
Snow 0.00 in 0.00 in 3.20 in (1940)
Month to date snowfall 0.0 0.2  
Since 1 July snowfall 45.6 20.8  
Snow Depth 0.00 in    
Sea Level Pressure  
Sea Level Pressure 30.04 in    
Wind  
Wind Speed 6 mph (West)    
Max Wind Speed 14 mph    
Max Gust Speed 17 mph    
Visibility 10 miles    
Events      
T = Trace of Precipitation, MM = Missing Value Source: NWS Daily Summary

Daily Weather History Graph

Daily Weather History Graph

Search for Another Location

Airport or City:

Trip Planner

Search our weather history database for the weather conditions in past years. The results will help you decide how hot, cold, wet, or windy it might be!

Date:

Astronomy

Apr. 11, 2014 Rise Set
Actual Time 6:27 AM CDT 7:33 PM CDT
Civil Twilight 5:59 AM CDT 8:00 PM CDT
Nautical Twilight 5:26 AM CDT 8:33 PM CDT
Astronomical Twilight 4:51 AM CDT 9:08 PM CDT
Moon 4:13 PM CDT (4/11) 4:21 AM CDT (4/11)
Length of Visible Light 14h 01m
Length of Day
13h 05m
Waxing Gibbous, 87% of the Moon is Illuminated
Apr 11
Waxing Gibbous
Apr 15
Full
Apr 22
Last Quarter
Apr 29
New
May 6
First Quarter

Hourly Weather History & Observations

Time (CDT) Temp. Windchill Dew Point Humidity Pressure Visibility Wind Dir Wind Speed Gust Speed Precip Events Conditions
12:52 AM 51.1 °F - 35.1 °F 54% 30.00 in 10.0 mi NW 4.6 mph - N/A   Mostly Cloudy
1:52 AM 53.1 °F - 28.0 °F 38% 29.99 in 10.0 mi NNW 5.8 mph - N/A   Mostly Cloudy
2:52 AM 51.1 °F - 27.0 °F 39% 30.00 in 10.0 mi NNW 4.6 mph - N/A   Clear
3:52 AM 46.9 °F - 28.0 °F 48% 30.01 in 10.0 mi Calm Calm - N/A   Clear
4:52 AM 41.0 °F 38.0 °F 32.0 °F 70% 30.03 in 10.0 mi NNW 4.6 mph - N/A   Clear
5:52 AM 37.0 °F 34.5 °F 30.0 °F 76% 30.05 in 10.0 mi NW 3.5 mph - N/A   Clear
6:52 AM 37.9 °F 35.5 °F 30.9 °F 76% 30.07 in 10.0 mi West 3.5 mph - N/A   Clear
7:52 AM 45.0 °F - 34.0 °F 65% 30.08 in 10.0 mi Calm Calm - N/A   Clear
8:52 AM 55.9 °F - 32.0 °F 40% 30.09 in 10.0 mi North 5.8 mph - N/A   Clear
9:52 AM 63.0 °F - 27.0 °F 26% 30.08 in 10.0 mi NNE 4.6 mph - N/A   Clear
10:52 AM 66.0 °F - 25.0 °F 21% 30.09 in 10.0 mi North 6.9 mph - N/A   Clear
11:52 AM 68.0 °F - 24.1 °F 19% 30.08 in 10.0 mi NE 4.6 mph - N/A   Clear
12:52 PM 69.1 °F - 24.1 °F 18% 30.07 in 10.0 mi Variable 4.6 mph - N/A   Clear
1:52 PM 71.1 °F - 24.1 °F 17% 30.05 in 10.0 mi Variable 5.8 mph - N/A   Clear
2:52 PM 72.0 °F - 23.0 °F 16% 30.04 in 10.0 mi South 5.8 mph - N/A   Clear
3:52 PM 73.0 °F - 24.1 °F 16% 30.01 in 10.0 mi WSW 10.4 mph - N/A   Clear
4:52 PM 72.0 °F - 25.0 °F 17% 30.00 in 10.0 mi SW 11.5 mph - N/A   Clear
5:52 PM 72.0 °F - 27.0 °F 19% 30.00 in 10.0 mi SSW 8.1 mph - N/A   Clear
6:52 PM 70.0 °F - 27.0 °F 20% 30.01 in 10.0 mi SW 5.8 mph - N/A   Clear
7:52 PM 61.0 °F - 30.0 °F 31% 30.01 in 10.0 mi South 6.9 mph - N/A   Clear
8:52 PM 62.1 °F - 34.0 °F 35% 30.03 in 10.0 mi South 10.4 mph - N/A   Clear
9:52 PM 61.0 °F - 34.0 °F 36% 30.04 in 10.0 mi South 11.5 mph - N/A   Clear
10:52 PM 60.1 °F - 34.0 °F 38% 30.03 in 10.0 mi South 9.2 mph - N/A   Clear
11:52 PM 55.0 °F - 34.0 °F 45% 30.02 in 10.0 mi SSE 8.1 mph - N/A   Clear